N6GIW Weather Reports


Display with metric or nautical units.
time (UTC)temp
F
wind
direction
speed
MPH
gust
MPH
rain 1hr
in
rain 24hr
in
rain mn
in
humidity
%
barometer
mb
20260506091503 51 213 0.0 3.0 0.00 0.00 0.00 52 1021.8
20260506091004 51 212 2.0 3.0 0.00 0.00 0.00 52 1021.8
20260506090504 51 215 2.0 5.0 0.00 0.00 0.00 52 1021.8
20260506090003 51 220 2.0 3.0 0.00 0.00 0.00 52 1022.0
20260506085504 51 217 1.0 3.0 0.00 0.00 0.00 53 1022.0
20260506085003 50 208 0.0 2.0 0.00 0.00 0.00 53 1022.0
20260506084003 50 206 2.0 5.0 0.00 0.00 0.00 53 1022.0
20260506083503 49 202 3.0 5.0 0.00 0.00 0.00 55 1022.1
20260506083004 49 203 2.0 3.0 0.00 0.00 0.00 56 1021.8
20260506082004 48 206 0.0 2.0 0.00 0.00 0.00 58 1021.8
20260506081503 47 206 2.0 3.0 0.00 0.00 0.00 60 1021.8
20260506081004 47 227 0.0 2.0 0.00 0.00 0.00 61 1021.7
20260506080503 47 246 0.0 0.0 0.00 0.00 0.00 58 1021.8
20260506073503 51 247 0.0 0.0 0.00 0.00 0.00 54 1022.1
20260506073004 52 247 0.0 1.0 0.00 0.00 0.00 52 1021.9
20260506072503 53 246 0.0 2.0 0.00 0.00 0.00 52 1021.9
20260506072003 54 258 0.0 0.0 0.00 0.00 0.00 51 1022.0
20260506071504 54 258 0.0 3.0 0.00 0.00 0.00 52 1021.9
20260506070504 54 241 2.0 3.0 0.00 0.00 0.00 54 1021.8
20260506062503 54 329 3.0 5.0 0.00 0.00 0.00 56 1021.5
20260506061004 53 239 0.0 1.0 0.00 0.00 0.00 56 1021.3
20260506060503 53 239 0.0 0.0 0.00 0.00 0.00 54 1021.3
20260506051003 56 299 1.0 6.0 0.00 0.00 0.00 51 1020.6
20260506050503 57 304 1.0 5.0 0.00 0.00 0.00 51 1020.6
20260506044504 55 242 0.0 2.0 0.00 0.00 0.00 53 1020.5
20260506044003 55 204 1.0 3.0 0.00 0.00 0.00 52 1020.4
20260506043503 55 206 2.0 7.0 0.00 0.00 0.00 52 1020.3
20260506042004 56 184 1.0 3.0 0.00 0.00 0.00 51 1020.2
20260506041503 56 176 0.0 0.0 0.00 0.00 0.00 50 1020.1
20260506041003 57 176 0.0 2.0 0.00 0.00 0.00 50 1020.1
20260506040004 59 285 0.0 2.0 0.00 0.00 0.00 48 1020.0
20260506035503 59 292 3.0 9.0 0.00 0.00 0.00 48 1019.9
20260506035004 59 316 3.0 6.0 0.00 0.00 0.00 47 1019.7
20260506034004 59 322 6.0 10.0 0.00 0.00 0.00 47 1019.5
20260506033503 59 320 5.0 12.0 0.00 0.00 0.00 47 1019.4
20260506033005 59 304 4.0 9.0 0.00 0.00 0.00 47 1019.3
20260506032503 59 308 6.0 10.0 0.00 0.00 0.00 46 1019.3
20260506032003 60 318 6.0 12.0 0.00 0.00 0.00 46 1019.2
20260506031503 60 315 9.0 12.0 0.00 0.00 0.00 46 1019.2
20260506031003 60 316 6.0 10.0 0.00 0.00 0.00 46 1019.2
20260506030503 60 322 6.0 12.0 0.00 0.00 0.00 45 1019.1
20260506030004 60 322 5.0 12.0 0.00 0.00 0.00 44 1019.1
20260506025503 60 319 7.0 12.0 0.00 0.00 0.00 44 1019.1
20260506025004 60 331 3.0 12.0 0.00 0.00 0.00 42 1019.0
20260506024503 61 307 5.0 12.0 0.00 0.00 0.00 42 1019.0
20260506024004 61 328 7.0 12.0 0.00 0.00 0.00 42 1019.0
20260506023504 61 324 9.0 12.0 0.00 0.00 0.00 41 1019.0
20260506023003 61 321 5.0 10.0 0.00 0.00 0.00 41 1018.7
20260506022504 61 340 7.0 12.0 0.00 0.00 0.00 39 1018.7
20260506022004 62 319 6.0 12.0 0.00 0.00 0.00 39 1018.7
20260506021505 62 320 9.0 13.0 0.00 0.00 0.00 38 1018.5
20260506021003 63 347 6.0 10.0 0.00 0.00 0.00 36 1018.3
20260506015503 63 351 9.0 13.0 0.00 0.00 0.00 35 1018.2
20260506015004 64 320 7.0 12.0 0.00 0.00 0.00 35 1018.3
20260506014003 64 336 6.0 12.0 0.00 0.00 0.00 34 1018.1
20260506013503 64 351 9.0 14.0 0.00 0.00 0.00 34 1018.1
20260506013003 65 327 6.0 12.0 0.00 0.00 0.00 32 1018.1
20260506012503 65 328 6.0 12.0 0.00 0.00 0.00 33 1018.1
20260506012004 65 320 7.0 12.0 0.00 0.00 0.00 33 1018.0
20260506011504 65 306 5.0 13.0 0.00 0.00 0.00 33 1018.1
20260506011004 65 301 8.0 12.0 0.00 0.00 0.00 34 1018.1
20260506010504 64 349 5.0 10.0 0.00 0.00 0.00 35 1018.2
20260506010004 63 239 2.0 6.0 0.00 0.00 0.00 40 1018.2
20260506005504 63 235 3.0 5.0 0.00 0.00 0.00 40 1018.2
20260506003504 65 242 5.0 20.0 0.00 0.00 0.00 37 1017.9
20260506003005 65 190 5.0 9.0 0.00 0.00 0.00 38 1018.1
20260506002503 64 218 3.0 7.0 0.00 0.00 0.00 38 1018.0
20260506001503 64 248 4.0 10.0 0.00 0.00 0.00 38 1018.0
20260506000503 64 217 5.0 9.0 0.00 0.00 0.00 38 1018.0
20260506000004 64 240 6.0 10.0 0.00 0.00 0.00 39 1018.1
20260505235503 64 256 7.0 12.0 0.00 0.00 0.00 39 1018.1
20260505235003 64 241 3.0 9.0 0.00 0.00 0.00 39 1018.1
20260505234503 64 219 4.0 9.0 0.00 0.00 0.00 39 1018.0
20260505234004 64 206 3.0 7.0 0.00 0.00 0.00 38 1018.0
20260505233005 64 189 3.0 9.0 0.00 0.00 0.00 38 1018.0
20260505232504 64 209 3.0 12.0 0.00 0.00 0.00 38 1018.0
20260505232004 64 2 1.0 6.0 0.00 0.00 0.00 39 1018.1
20260505231504 63 149 1.0 3.0 0.00 0.00 0.00 39 1018.0
20260505231004 63 146 2.0 7.0 0.00 0.00 0.00 39 1018.0
20260505230504 63 171 2.0 7.0 0.00 0.00 0.00 39 1018.0
20260505230004 64 218 3.0 8.0 0.00 0.00 0.00 38 1018.0
20260505225504 64 187 1.0 5.0 0.00 0.00 0.00 39 1018.2
20260505225003 64 200 1.0 5.0 0.00 0.00 0.00 38 1018.1
20260505224504 64 239 3.0 6.0 0.00 0.00 0.00 37 1018.2
20260505224004 64 223 2.0 12.0 0.00 0.00 0.00 38 1018.2
20260505223505 64 173 1.0 6.0 0.00 0.00 0.00 37 1018.3
20260505223003 65 188 3.0 9.0 0.00 0.00 0.00 37 1018.3
20260505222503 65 216 4.0 7.0 0.00 0.00 0.00 37 1018.3
20260505222004 65 295 4.0 10.0 0.00 0.00 0.00 37 1018.2
20260505221004 64 187 1.0 7.0 0.00 0.00 0.00 38 1018.4
20260505220504 63 232 4.0 10.0 0.00 0.00 0.00 38 1018.5
20260505220003 63 243 3.0 7.0 0.00 0.00 0.00 38 1018.5
20260505215504 63 151 5.0 8.0 0.00 0.00 0.00 38 1018.5
20260505215003 63 14 1.0 5.0 0.00 0.00 0.00 39 1018.5
20260505214503 62 53 1.0 5.0 0.00 0.00 0.00 40 1018.6
20260505214003 62 192 2.0 7.0 0.00 0.00 0.00 40 1018.7
20260505213005 62 151 3.0 9.0 0.00 0.00 0.00 40 1018.9
20260505212503 62 192 3.0 9.0 0.00 0.00 0.00 41 1018.9
20260505211004 62 276 1.0 6.0 0.00 0.00 0.00 40 1019.1
20260505210504 62 297 3.0 12.0 0.00 0.00 0.00 40 1019.0
20260505210004 62 192 3.0 12.0 0.00 0.00 0.00 40 1019.1
20260505205503 63 144 1.0 8.0 0.00 0.00 0.00 41 1019.1
20260505205004 62 154 3.0 8.0 0.00 0.00 0.00 41 1019.0
20260505204003 62 237 5.0 8.0 0.00 0.00 0.00 41 1018.9
20260505203504 61 271 1.0 7.0 0.00 0.00 0.00 42 1018.9
20260505203003 61 278 6.0 9.0 0.00 0.00 0.00 42 1018.8
20260505202503 61 247 3.0 7.0 0.00 0.00 0.00 42 1019.1
20260505202004 61 187 4.0 7.0 0.00 0.00 0.00 43 1019.2
20260505201004 61 271 1.0 7.0 0.00 0.00 0.00 42 1019.3
20260505200504 60 243 0.0 3.0 0.00 0.00 0.00 42 1019.3
20260505195504 60 248 0.0 7.0 0.00 0.00 0.00 42 1019.4
20260505195004 61 332 2.0 5.0 0.00 0.00 0.00 42 1019.4
20260505194504 60 358 2.0 6.0 0.00 0.00 0.00 43 1019.6
20260505194003 60 16 2.0 3.0 0.00 0.00 0.00 43 1019.6
20260505193503 60 258 6.0 10.0 0.00 0.00 0.00 42 1019.5
20260505193004 61 298 5.0 12.0 0.00 0.00 0.00 42 1019.3
20260505192504 61 144 2.0 12.0 0.00 0.00 0.00 42 1019.5
20260505192003 61 29 2.0 5.0 0.00 0.00 0.00 43 1019.5
20260505191504 60 319 2.0 8.0 0.00 0.00 0.00 44 1019.5
20260505191004 61 12 5.0 9.0 0.00 0.00 0.00 43 1019.6
20260505190504 61 11 5.0 12.0 0.00 0.00 0.00 43 1019.5
20260505190004 62 12 5.0 12.0 0.00 0.00 0.00 42 1019.4
20260505185503 62 323 4.0 8.0 0.00 0.00 0.00 42 1019.5
20260505185004 62 317 3.0 9.0 0.00 0.00 0.00 41 1019.5
20260505184503 63 29 1.0 5.0 0.00 0.00 0.00 37 1019.5
20260505184003 62 27 0.0 2.0 0.00 0.00 0.00 37 1019.4
20260505183504 62 9 1.0 3.0 0.00 0.00 0.00 38 1019.4
20260505183004 62 79 2.0 6.0 0.00 0.00 0.00 38 1019.4
20260505182504 62 140 0.0 3.0 0.00 0.00 0.00 39 1019.4
20260505182004 62 139 2.0 3.0 0.00 0.00 0.00 39 1019.4
20260505181504 61 116 1.0 3.0 0.00 0.00 0.00 40 1019.4
20260505181004 61 110 2.0 9.0 0.00 0.00 0.00 41 1019.4
20260505180504 60 8 3.0 7.0 0.00 0.00 0.00 42 1019.3
20260505180003 59 79 2.0 6.0 0.00 0.00 0.00 42 1019.3
20260505175504 59 92 2.0 5.0 0.00 0.00 0.00 43 1019.3
20260505175004 59 6 4.0 7.0 0.00 0.00 0.00 41 1019.2
20260505174504 60 16 4.0 8.0 0.00 0.00 0.00 41 1019.1
20260505174003 60 353 2.0 5.0 0.00 0.00 0.00 41 1019.1
20260505173505 61 13 1.0 3.0 0.00 0.00 0.00 40 1019.1
20260505173004 61 32 5.0 8.0 0.00 0.00 0.00 39 1019.1
20260505172003 61 81 3.0 7.0 0.00 0.00 0.00 41 1019.0
20260505171504 60 104 3.0 7.0 0.00 0.00 0.00 42 1019.0
20260505171003 60 93 3.0 6.0 0.00 0.00 0.00 42 1019.0
20260505170004 59 32 2.0 5.0 0.00 0.00 0.00 43 1019.1
20260505165503 58 41 2.0 5.0 0.00 0.00 0.00 44 1019.0
20260505165003 58 106 1.0 3.0 0.00 0.00 0.00 43 1019.0
20260505164504 58 104 1.0 3.0 0.00 0.00 0.00 43 1019.0
20260505163504 59 129 1.0 5.0 0.00 0.00 0.00 42 1019.0
20260505163003 59 133 1.0 7.0 0.00 0.00 0.00 42 1019.0
20260505162504 59 101 1.0 3.0 0.00 0.00 0.00 44 1018.9
20260505161503 58 104 1.0 7.0 0.00 0.00 0.00 44 1018.8
20260505161004 58 83 2.0 3.0 0.00 0.00 0.00 45 1018.7
20260505160504 58 86 1.0 3.0 0.00 0.00 0.00 45 1018.5
20260505153003 57 113 0.0 2.0 0.00 0.00 0.00 46 1018.5
20260505152504 56 115 1.0 3.0 0.00 0.00 0.00 47 1018.4
20260505152003 56 116 1.0 3.0 0.00 0.00 0.00 48 1018.5
20260505151503 56 137 3.0 8.0 0.00 0.00 0.00 49 1018.3
20260505150504 55 139 5.0 8.0 0.00 0.00 0.00 49 1018.3
20260505140503 49 215 0.0 0.0 0.00 0.00 0.00 54 1018.0
20260505124504 43 245 0.0 0.0 0.00 0.00 0.00 63 1017.6
20260505124003 44 245 0.0 0.0 0.00 0.00 0.00 62 1017.6
20260505123504 44 245 0.0 1.0 0.00 0.00 0.00 61 1017.6
20260505123003 44 245 1.0 3.0 0.00 0.00 0.00 61 1017.6
20260505122503 45 242 2.0 3.0 0.00 0.00 0.00 60 1017.7
20260505122003 45 236 2.0 5.0 0.00 0.00 0.00 61 1017.6
20260505121503 45 235 2.0 3.0 0.00 0.00 0.00 60 1017.6
20260505121003 44 234 2.0 3.0 0.00 0.00 0.00 60 1017.6
20260505120504 44 233 2.0 5.0 0.00 0.00 0.00 60 1017.5
20260505120005 43 233 2.0 5.0 0.00 0.00 0.00 62 1017.6
20260505115504 43 235 0.0 2.0 0.00 0.00 0.00 65 1017.5
20260505115004 42 211 0.0 0.0 0.00 0.00 0.00 65 1017.5
20260505114504 41 211 0.0 0.0 0.00 0.00 0.00 64 1017.5
20260505114003 42 211 0.0 0.0 0.00 0.00 0.00 64 1017.6
20260505113503 42 211 0.0 0.0 0.00 0.00 0.00 63 1017.4
20260505112503 42 211 0.0 1.0 0.00 0.00 0.00 64 1017.5
20260505112005 42 211 0.0 0.0 0.00 0.00 0.00 63 1017.5
20260505111503 42 211 0.0 0.0 0.00 0.00 0.00 63 1017.4
20260505110504 42 211 0.0 0.0 0.00 0.00 0.00 64 1017.4
20260505102003 44 232 0.0 0.0 0.00 0.00 0.00 60 1017.5
20260505101504 44 232 0.0 1.0 0.00 0.00 0.00 61 1017.5
20260505101003 45 232 0.0 2.0 0.00 0.00 0.00 60 1017.6
20260505100003 44 237 2.0 3.0 0.00 0.00 0.00 61 1017.6
20260505095504 44 262 1.0 2.0 0.00 0.00 0.00 63 1017.5
20260505095005 44 297 1.0 3.0 0.00 0.00 0.00 62 1017.6
20260505094004 45 214 1.0 2.0 0.00 0.00 0.00 63 1017.6
20260505093505 45 236 0.0 0.0 0.00 0.00 0.00 62 1017.9
20260505092004 45 246 1.0 3.0 0.00 0.00 0.00 62 1017.9